Weather reports worldwide

Advertisment
Bergamo/Orio al Serio, Italy (16076): temperature & dewpoint: 19.03.2019 07:00:00 - 25.03.2019 07:00:00 (CET)Bergamo/Orio al Serio, Italy (16076): wind speed: 19.03.2019 07:00:00 - 25.03.2019 07:00:00 (CET)Bergamo/Orio al Serio, Italy (16076): wind direction: 19.03.2019 07:00:00 - 25.03.2019 07:00:00 (CET)Bergamo/Orio al Serio, Italy (16076): reduced air pressure: 19.03.2019 07:00:00 - 25.03.2019 07:00:00 (CET)Bergamo/Orio al Serio, Italy (16076): visibility: 19.03.2019 07:00:00 - 25.03.2019 07:00:00 (CET)Bergamo/Orio al Serio, Italy (16076): precipitation: 19.03.2019 07:00:00 - 25.03.2019 07:00:00 (CET)
Date & Time tt [°C] td [°C] ff [km/h] ff [kn] dd ppp [hPa] vv [km] rr [mm]
25.03.2019 07:00:00 8,2 2,5 8 4 N 1013,5 10 -
25.03.2019 06:00:00 7,0 2,0 5 3 N - 10 -
25.03.2019 05:00:00 8,0 2,0 8 4 N - 10 -
25.03.2019 04:00:00 9,2 2,3 9 5 N 1014,4 10 0,0
25.03.2019 03:00:00 9,0 2,0 5 3 N - 10 -
25.03.2019 02:00:00 10,0 2,0 5 3 N - 10 -
25.03.2019 01:00:00 11,0 2,5 5 3 NW 1016,2 10 -
25.03.2019 00:00:00 12,0 3,0 5 3 NNW - 10 -
24.03.2019 23:00:00 13,0 3,0 8 4 N - 10 -
24.03.2019 22:00:00 12,6 3,0 9 5 N 1017,1 10 0,0
24.03.2019 21:00:00 13,0 3,0 9 5 N - 10 -
24.03.2019 20:00:00 15,0 3,0 8 4 N - 10 -
24.03.2019 19:00:00 19,3 1,6 8 4 SSW 1017,1 8 -
24.03.2019 18:00:00 21,0 1,0 11 6 SSW - 10 -
24.03.2019 17:00:00 22,0 2,0 13 7 SW - 10 -
24.03.2019 16:00:00 22,4 1,3 15 8 SW 1018,2 10 0,0
24.03.2019 15:00:00 22,0 3,0 13 7 SW - 7 -
24.03.2019 14:00:00 21,0 3,0 13 7 SW - 7 -
24.03.2019 13:00:00 20,9 2,5 8 4 SW 1021,2 10 -
24.03.2019 12:00:00 20,0 2,0 8 4 WSW - 10 -
24.03.2019 11:00:00 19,0 4,0 8 4 SW - 10 -
24.03.2019 10:00:00 17,8 3,0 4 2 - 1023,0 10 0,0
24.03.2019 09:00:00 14,0 3,0 4 2 - - 10 -
24.03.2019 08:00:00 11,0 3,0 8 4 N - 10 -
24.03.2019 07:00:00 7,9 1,9 9 5 N 1023,4 10 -
24.03.2019 06:00:00 8,0 2,0 9 5 N - 10 -
24.03.2019 05:00:00 8,0 2,0 11 6 N - 10 -
24.03.2019 04:00:00 8,5 1,9 11 6 N 1023,5 10 0,0
24.03.2019 03:00:00 10,0 2,0 5 3 N - 10 -
24.03.2019 02:00:00 9,0 2,0 11 6 N - 10 -
24.03.2019 01:00:00 10,6 2,2 9 5 N 1024,0 10 -
24.03.2019 00:00:00 11,0 2,0 9 5 N - 10 -
23.03.2019 23:00:00 12,0 2,0 8 4 N - 10 -
23.03.2019 22:00:00 12,0 2,2 9 5 N 1024,5 10 0,0
23.03.2019 21:00:00 12,0 3,0 13 7 N - 8 -
23.03.2019 20:00:00 14,0 3,0 9 5 N - 8 -
23.03.2019 19:00:00 15,4 1,5 4 2 - 1023,7 8 -
23.03.2019 18:00:00 19,0 2,0 9 5 SSW - 10 -
23.03.2019 17:00:00 20,0 1,0 11 6 S - 10 -
23.03.2019 16:00:00 20,6 0,8 9 5 S 1023,5 10 0,0
23.03.2019 15:00:00 21,0 1,0 13 7 SSW - 10 -
23.03.2019 14:00:00 20,0 -1,0 11 6 WSW - 10 -
23.03.2019 13:00:00 19,4 -1,8 9 5 SW 1025,3 10 -
23.03.2019 12:00:00 18,0 0,0 8 4 SSW - 10 -
23.03.2019 11:00:00 17,0 1,0 8 4 SW - 10 -
23.03.2019 10:00:00 15,8 1,3 5 3 SW 1026,8 10 0,0
23.03.2019 09:00:00 13,0 0,0 2 1 - - 10 -
23.03.2019 08:00:00 10,0 2,0 4 2 - - 10 -
23.03.2019 07:00:00 8,0 1,0 9 5 N - 10 -
23.03.2019 06:00:00 - - - - - - - -
23.03.2019 05:00:00 7,0 1,0 11 6 N - 10 -
23.03.2019 04:00:00 7,6 1,1 11 6 N 1026,4 10 0,0
23.03.2019 03:00:00 7,0 1,0 9 5 N - 10 -
23.03.2019 02:00:00 8,0 1,0 9 5 N - 10 -
23.03.2019 01:00:00 7,2 1,5 11 6 N 1027,7 10 -
23.03.2019 00:00:00 8,0 2,0 9 5 N - 10 -
22.03.2019 23:00:00 10,0 1,0 9 5 N - 10 -
22.03.2019 22:00:00 9,5 1,3 9 5 N 1027,8 10 0,0
22.03.2019 21:00:00 11,0 1,0 9 5 N - 10 -
22.03.2019 20:00:00 12,0 1,0 8 4 N - 10 -
22.03.2019 19:00:00 13,6 0,1 5 3 S 1027,3 10 -
22.03.2019 18:00:00 17,0 -2,0 11 6 SSW - 10 -
22.03.2019 17:00:00 18,0 -1,0 9 5 SSW - 10 -
22.03.2019 16:00:00 18,3 -1,1 8 4 SSE 1027,8 10 0,0
22.03.2019 15:00:00 18,0 -4,0 8 4 SSW - 10 -
22.03.2019 14:00:00 17,0 0,0 8 4 - - 10 -
22.03.2019 13:00:00 16,8 0,3 9 5 SSW 1030,0 10 -
22.03.2019 12:00:00 16,0 0,0 8 4 - - 10 -
22.03.2019 11:00:00 14,0 0,0 8 4 SW - 10 -
22.03.2019 10:00:00 13,3 0,1 4 2 - 1031,0 10 0,0
22.03.2019 09:00:00 11,0 1,0 2 1 - - 10 -
22.03.2019 08:00:00 7,0 1,0 9 5 N - 10 -
22.03.2019 07:00:00 3,8 -0,4 8 4 N 1030,8 10 -
22.03.2019 06:00:00 5,0 0,0 9 5 N - 10 -
22.03.2019 05:00:00 5,0 0,0 9 5 N - 10 -
22.03.2019 04:00:00 4,3 -0,2 9 5 N 1030,6 10 0,0
22.03.2019 03:00:00 5,0 0,0 11 6 SW - 10 -
22.03.2019 02:00:00 5,0 0,0 8 4 N - 10 -
22.03.2019 01:00:00 4,9 0,0 9 5 NNE 1031,6 10 -
22.03.2019 00:00:00 6,0 0,0 9 5 N - 10 -
21.03.2019 23:00:00 6,0 1,0 9 5 N - 10 -
21.03.2019 22:00:00 7,3 0,4 9 5 N 1031,5 10 0,0
21.03.2019 21:00:00 9,0 0,0 9 5 N - 10 -
21.03.2019 20:00:00 10,0 -1,0 2 1 - - 10 -
21.03.2019 19:00:00 11,9 -1,0 8 4 SSW 1030,2 10 -
21.03.2019 18:00:00 13,0 -1,0 9 5 S - 10 -
21.03.2019 17:00:00 15,0 -1,0 9 5 SSW - 10 -
21.03.2019 16:00:00 14,9 -0,2 9 5 S 1030,4 10 0,0
21.03.2019 15:00:00 14,0 -2,0 9 5 WSW - 10 -
21.03.2019 14:00:00 14,0 -2,0 8 4 S - 10 -
21.03.2019 13:00:00 13,3 -1,9 8 4 W 1032,4 10 -
21.03.2019 12:00:00 12,0 -2,0 11 6 SW - 10 -
21.03.2019 11:00:00 11,0 -2,0 9 5 WNW - 10 -
21.03.2019 10:00:00 10,2 -2,1 9 5 W 1033,9 10 0,0
21.03.2019 09:00:00 8,0 -1,0 5 3 NNE - 10 -
21.03.2019 08:00:00 5,0 -1,0 8 4 N - 10 -
21.03.2019 07:00:00 2,5 -1,8 5 3 NNE 1033,1 10 -
21.03.2019 06:00:00 3,0 -2,0 9 5 N - 10 -
21.03.2019 05:00:00 3,0 -2,0 8 4 N - 10 -
21.03.2019 04:00:00 2,9 -1,8 8 4 N 1032,4 10 0,0
21.03.2019 03:00:00 4,0 -1,0 8 4 N - 10 -
21.03.2019 02:00:00 4,0 -1,0 9 5 NNE - 10 -
21.03.2019 01:00:00 3,5 -1,0 9 5 N 1032,8 10 -
21.03.2019 00:00:00 4,0 -1,0 11 6 N - 10 -
20.03.2019 23:00:00 6,0 -2,0 4 2 - - 10 -
20.03.2019 22:00:00 5,8 -0,9 5 3 NE 1032,0 10 0,0
20.03.2019 21:00:00 7,0 0,0 8 4 NNE - 10 -
20.03.2019 20:00:00 7,0 -1,0 2 1 - - 10 -
20.03.2019 19:00:00 10,4 -1,5 8 4 S 1029,7 10 -
20.03.2019 18:00:00 12,0 -2,0 13 7 S - 10 -
20.03.2019 17:00:00 13,0 -1,0 9 5 SSW - 10 -
20.03.2019 16:00:00 12,8 -0,5 9 5 WSW 1028,7 10 0,0
20.03.2019 15:00:00 12,0 -1,0 16 9 SW - 10 -
20.03.2019 14:00:00 12,0 -2,0 9 5 S - 10 -
20.03.2019 13:00:00 11,7 -1,0 13 7 SSW 1030,6 10 -
20.03.2019 12:00:00 11,0 0,0 8 4 SSW - 10 -
20.03.2019 11:00:00 10,0 -1,0 9 5 SW - 10 -
20.03.2019 10:00:00 9,6 -0,3 5 3 S 1031,2 10 0,0
20.03.2019 09:00:00 8,0 0,0 2 1 - - 10 -
20.03.2019 08:00:00 6,0 0,0 2 1 - - 10 -
20.03.2019 07:00:00 3,6 -1,4 5 3 NNE 1029,5 10 -
20.03.2019 06:00:00 3,0 -1,0 9 5 N - 10 -
20.03.2019 05:00:00 3,0 -1,0 9 5 N - 10 -
20.03.2019 04:00:00 2,5 -1,3 4 2 - 1028,3 10 0,0
20.03.2019 03:00:00 4,0 -1,0 8 4 N - 10 -
20.03.2019 02:00:00 4,0 -1,0 5 3 N - 10 -
20.03.2019 01:00:00 5,3 -0,9 5 3 N 1028,2 10 -
20.03.2019 00:00:00 6,0 -1,0 4 2 N - 10 -
19.03.2019 23:00:00 8,0 -2,0 5 3 E - 10 -
19.03.2019 22:00:00 7,7 -0,9 5 3 E 1027,0 10 0,0
19.03.2019 21:00:00 9,0 -1,0 13 7 SSE - 10 -
19.03.2019 20:00:00 10,0 -1,0 5 3 SSE - 10 -
19.03.2019 19:00:00 10,5 -1,0 9 5 SSE 1024,2 10 -
19.03.2019 18:00:00 12,0 -1,0 11 6 S - 10 -
19.03.2019 17:00:00 12,0 -1,0 9 5 S - 10 -
19.03.2019 16:00:00 11,9 -0,8 13 7 S 1022,4 10 0,0
19.03.2019 15:00:00 12,0 -1,0 11 6 S - 10 -
19.03.2019 14:00:00 12,0 -1,0 9 5 SSE - 10 -
19.03.2019 13:00:00 11,7 -0,9 8 4 SSE 1022,9 10 -
19.03.2019 12:00:00 11,0 0,0 9 5 SSE - 10 -
19.03.2019 11:00:00 10,0 -1,0 9 5 SSE - 10 -
19.03.2019 10:00:00 9,0 -0,1 2 1 - 1022,9 10 0,0
19.03.2019 09:00:00 7,0 1,0 2 1 - - 10 -
19.03.2019 08:00:00 4,0 0,0 4 2 - - 10 -
19.03.2019 07:00:00 2,4 -0,3 5 3 N 1021,2 10 -

tt = temperature
td = dewpoint
ff = wind speed
dd = wind direction
ppp = reduced air pressure
vv = visibility
rr = precipitation

Next stations